Weather in Spasskoye

Russia / Kirov Oblast     57°47′40″N   50°56′24″E
temp.,
°C
wind,
m/s
gust,
m/s
humid.,
%
clouds,
%
prec.,
mm/h
press.,
hPa
HPBL,
m
14 april, wed
wed1400:00+5sw4799100 0.0 1031165
03:00+4sw459891 0.0 1031152
06:00+4ssw359518 0.0 1031100
09:00+10ssw457348 0.0 1030226
12:00+15ssw575874 0.0 1028601
15:00+16ssw585658 0.0 1027873
18:00+13ssw33745 0.0 102532
21:00+10s35855 0.0 102570
15 april, thu
thu1500:00+8ssw37905 0.0 1024101
03:00+7ssw35935 0.0 102384
06:00+8ssw36945 0.0 1021138
09:00+13sw46750 0.0 1020451
12:00+16sw566569 0.0 10191138
15:00+16wsw456297 0.7 10181219
18:00+13nnw5876100 3.0 1018256
21:00+6nne81381100 3.1 1021472
16 april, fri
fri1600:00+5ne6128190 0.0 1023550
03:00+4ne6127781 0.0 1025556
06:00+3ne6116891 0.0 1026645
09:00+6ene784812 0.0 1027887
12:00+8ne56393 0.0 10271159
15:00+9nne553653 0.0 10271340
18:00+7nne354750 0.0 1027122
21:00+4nne355825 0.0 102881
17 april, sat
sat1700:00+2nne356314 0.0 102866
03:00+1n34667 0.0 102849
06:00+2nnw36660 0.0 1028184
09:00+6n35470 0.0 1029949
12:00+8nnw5650100 0.0 10281736
15:00+7nnw6857100 0.0 10281304
18:00+5nnw596465 0.0 1028801
21:00+2nw38805 0.0 1028197
18 april, sun
sun1800:00+1nnw512815 0.0 1028364
03:000nnw512815 0.0 1029361
06:00+1nnw611785 0.0 1030682
09:00+4n79545 0.0 10301067
12:00+6n7104798 0.0 10301723
15:00+5ne5641100 0.1 10331808
18:00+4n47585 0.0 1033523
21:00+1n35735 0.0 103498